Simultaneous Nadir Overpasses (SNOs) Predictions

Prediction of SNOs near US between AQUA and NPP Satellite Orbit:

Table of predicted SNOs near US for the next 10.0 days since TLE Epoch: 1/8/2022
Index Date (AQUA) Time (AQUA) AQUA Lat,Lon Date (NPP) Time (NPP) NPP Lat,Lon Distance(km) Time Diff (sec)
1 01/09/2022 06:31:06 46.37, -65.03 01/09/2022 06:31:11 46.77, -67.08 163.31 5
2 01/09/2022 08:08:59 49.94, -88.33 01/09/2022 08:11:37 50.45, -90.89 190.79 158
3 01/09/2022 09:47:53 49.88,-113.07 01/09/2022 09:53:06 50.49,-116.24 235.56 313
4 01/11/2022 19:07:08 49.95, -92.57 01/11/2022 19:01:50 49.62, -94.42 137.91 318
5 01/11/2022 20:46:01 49.94,-117.29 01/11/2022 20:43:18 49.52,-119.75 183.22 163
6 01/14/2022 10:12:53 26.68,-125.00 01/14/2022 10:06:23 25.84,-126.00 136.94 390
7 01/17/2022 07:19:33 49.88, -75.97 01/17/2022 07:20:42 50.35, -78.21 167.70 69
8 01/17/2022 08:58:26 49.89,-100.69 01/17/2022 09:02:10 50.45,-103.53 212.16 224
